{"data":{"norad_id":55151,"epoch":"2026-05-25T03:08:37.421088Z","epoch_age_seconds":66753,"freshness":"FRESH","line1":"1 55151U 23004M   26145.13098867  .00000069  00000+0  14372-3 0  9990","line2":"2 55151  87.9151  10.4510 0001660  89.4972 270.6349 13.17650689164449","mean_motion":13.17650689,"eccentricity":0.000166,"inclination_deg":87.9151,"raan_deg":10.451,"arg_perigee_deg":89.4972,"mean_anomaly_deg":270.6349,"bstar":0.00014372,"rev_number":16444,"period_min":109.28541319952,"perigee_km":1192.4498632594,"apogee_km":1194.9637153975,"semimajor_km":7571.8437893285,"source":"CELESTRAK","updated_at":"2026-05-25T13:38:22.641629Z"}}